Weather in Serpiyevka

Russia / Chelyabinsk Oblast     54°51′28″N   57°51′38″E
temp.,
°C
wind,
m/s
gust,
m/s
humid.,
%
clouds,
%
prec.,
mm/h
press.,
hPa
HPBL,
m
27 november, sat
sat2723:00−3sw71796100 0.9 1024882
02:00−3sw81795100 0.3 1025948
05:00−4sw71796100 0.5 1025861
08:00−4sw7169192 0.4 1026909
11:00−5sw61780100 0.4 1027832
14:00−4sw61678100 0.0 1028838
17:00−5sw51581100 0.0 1029685
20:00−7sw41187100 0.0 1030380
28 november, sun
sun2823:00−8ssw378651 0.0 1031174
02:00−10ssw25825 0.0 103165
05:00−11s24781 0.0 103151
08:00−11s22730 0.0 103036
11:00−5ssw3135493 0.0 1027386
14:00−2ssw41552100 0.0 1025619
17:00−4ssw41361100 0.0 1025438
20:00−4ssw41460100 0.0 1024425
29 november, mon
mon2923:00−3ssw5136272 0.0 1024546
02:00−4ssw4136562 0.2 1024522
05:00−5ssw4118154 0.3 1024428
08:00−5ssw3992100 0.1 1024299
11:00−4ssw3794100 0.2 1025252
14:00−3ssw3794100 0.1 1024253
17:00−3ssw2796100 0.4 1025271
20:00−2ssw2696100 0.4 1025240
30 november, tue
tue3023:00−1ssw2596100 0.4 1024191
02:00−1s249799 0.4 1023128
05:00−3sse2297100 0.4 102128
08:00−3sse2294100 0.0 102039
11:000sse2590100 0.0 1016106
14:00+4ssw41466100 0.0 1012679
17:00+2s51656100 0.0 1011738
20:00+2s71967100 0.5 1008875
1 december, wed
wed123:00+3ssw61982100 2.9 10041114
02:00+1ssw61897100 2.3 10051110
05:00+1ssw61697100 6.1 1004950
08:00+1ssw41593100 1.0 1003627
11:00+2ssw41396100 1.6 1003720
14:00+2s31097100 0.1 1001482
17:00+1ese2499100 0.3 99994
20:000se2395100 0.0 99558